Location: Sangrey
(48.2845°N, 109.8206°W)
Time: 21:08:36
(UTC+00:00)

Envisat - Pass Details

Date: 26 January 2022
Orbit: 764 x 765 km, 98.2° (Epoch: 21 May)

Event Time Altitude Azimuth Distance (km) Brightness Sun altitude
Rises 14:16:26 0° 358° (N) 3,243 6.0 -6.7°
Reaches altitude 10° 14:20:09 10° 330° (NNW) 2,311 5.0 -6.1°
Maximum altitude 14:22:10 12° 307° (NW) 2,144 4.7 -5.8°
Drops below altitude 10° 14:24:10 10° 283° (WNW) 2,306 4.8 -5.5°
Sets 14:27:53 0° 255° (WSW) 3,228 5.7 -4.9°
